Location: Fiddletown
(38.4917°N, 120.6633°W)
Time: 16:09:04
(UTC-08:00)

Envisat - Visible Passes

Search period start: 24 February 2018 00:00
Search period end: 06 March 2018 00:00
Orbit: 764 x 766 km, 98.2° (Epoch: 24 February)

Date Brightness Start Highest point End Pass type
(mag) Time Alt. Az. Time Alt. Az. Time Alt. Az.
24 Feb 3.2 19:02:59 10° SE 19:07:48 45° ENE 19:12:38 10° N visible
24 Feb 5.4 20:43:26 10° SW 20:47:00 19° W 20:50:35 10° NW visible
25 Feb 4.2 18:27:38 10° ESE 18:31:22 21° ENE 18:35:06 10° NNE visible
25 Feb 4.1 20:05:14 10° S 20:10:03 43° W 20:14:54 10° NNW visible
26 Feb 2.9 19:28:13 10° SSE 19:33:17 82° ENE 19:38:23 10° N visible
27 Feb 3.5 18:52:08 10° SE 18:56:43 36° ENE 19:01:20 10° N visible
27 Feb 5.1 20:31:41 10° SSW 20:35:47 24° W 20:39:53 10° NW visible
28 Feb 4.5 18:17:12 10° ESE 18:20:21 17° ENE 18:23:31 10° NNE visible
28 Feb 3.6 19:53:55 10° S 19:58:53 56° W 20:03:53 10° NNW visible
01 Mar 2.9 19:17:10 10° SSE 19:22:11 64° ENE 19:27:12 10° N visible
01 Mar 5.8 20:59:11 10° WSW 21:01:36 13° W 21:04:02 10° WNW visible
02 Mar 3.8 18:41:22 10° SE 18:45:40 29° ENE 18:49:59 10° N visible
02 Mar 4.7 20:20:07 10° SSW 20:24:34 31° W 20:29:04 10° NW visible
03 Mar 3.2 19:42:41 10° S 19:47:44 72° WSW 19:52:49 10° NNW visible
04 Mar 3.1 19:06:12 10° SSE 19:11:05 50° ENE 19:15:59 10° N visible
04 Mar 5.5 20:47:03 10° SW 20:50:21 17° W 20:53:40 10° NW visible
05 Mar 4.1 18:30:43 10° ESE 18:34:38 23° ENE 18:38:33 10° NNE visible
05 Mar 4.3 20:08:39 10° SSW 20:13:23 39° W 20:18:09 10° NNW visible
